[[{"header":{"parameterUnit":"m.s-1","parameterCategory":1,"la1":30.2991,"la2":30.254,"lo1":-89.0895,"lo2":-89.0444,"dy":0.0017,"dx":0.0017,"nx":28,"ny":28,"refTime":"2024-09-01T21:00:00:Z","depth":0,"parameterNumber":2,"parameterNumberName":"U-component_of_WINDS"},"data":[0,0,0,0,0,0,0,0,0,0,0,0,0,0,0,0,0,0,0,0,0,0,0,0,0,0,0,0,0,0,0,0,0,0,0,0,0,0,0,0,0,0,0,0,0,0,0,0,0,0,0,0,0,0,0,0,0,0,-2.092,-2.092,0,-2.0937,-2.0937,-2.0937,-2.083,-2.0827,-2.0824,-2.0821,-2.0846,-2.085,-2.0853,0,0,0,0,0,0,0,0,0,0,0,0,0,-2.0801,-2.0804,-2.092,-2.092,-2.092,-2.0937,-2.0937,-2.0938,-2.0831,-2.0827,-2.0823,-2.082,-2.0845,-2.0849,-2.0854,0,0,0,0,0,0,0,0,0,0,0,0,0,-2.0839,-2.0805,-2.092,-2.0869,-2.0864,-2.0937,-2.0937,-2.0938,-2.0832,-2.0827,-2.0822,-2.0818,-2.0844,-2.0849,-2.0854,-2.0979,0,0,-2.087,-2.0873,0,0,0,0,0,0,0,0,-2.0837,-2.0844,-2.0876,-2.0872,-2.0867,-2.0876,-2.0905,-2.0952,-2.0833,-2.0844,-2.0821,-2.0816,-2.0861,-2.0864,-2.0878,-2.098,-2.0981,-2.0871,-2.0874,-2.0876,-2.0878,0,0,0,0,0,0,0,-2.0835,-2.0842,-2.0927,-2.0877,-2.0871,-2.0847,-2.0848,-2.0913,-2.0878,-2.0843,-2.0835,-2.0838,-2.0858,-2.0873,-2.0878,-2.0982,-2.0871,-2.0875,-2.0879,-2.0881,-2.119,-2.1194,0,0,0,0,0,0,-2.0838,-2.0841,-2.0926,-2.0927,-2.084,-2.0853,-2.0853,-2.0878,-2.0877,-2.0872,-2.0842,-2.0833,-2.0866,-2.0872,-2.0878,-2.1026,-2.0876,-2.0881,-2.0884,-2.1185,-2.1191,-2.1196,0,0,0,0,0,0,-2.0836,-2.0846,-2.0925,-2.0882,-2.089,-2.086,-2.0889,-2.0881,-2.0896,-2.0876,-2.0871,-2.0864,-2.0863,-2.0871,-2.0955,-2.1025,-2.0884,-2.0889,-2.1179,-2.1186,-2.1193,-2.1322,0,0,0,0,0,0,-2.0833,-2.0846,-2.0892,-2.0884,-2.0893,-2.1,-2.0893,-2.0885,-2.0905,-2.0894,-2.0895,-2.0891,-2.086,-2.0947,-2.096,-2.103,-2.0893,-2.1172,-2.1182,-2.1191,-2.1311,-2.1333,-2.1351,0,0,0,0,0,-2.0829,-2.0928,-2.0895,-2.0905,-2.0949,-2.1004,-2.101,-2.0969,-2.0911,-2.0958,-2.0945,-2.0891,-2.1015,-2.0957,-2.097,-2.1043,-2.1168,-2.1179,-2.119,-2.1302,-2.1329,-2.1351,0,0,0,0,0,0,-2.0948,-2.0926,-2.0889,-2.0988,-2.0998,-2.0986,-2.1043,-2.0998,-2.1027,-2.1016,-2.0966,-2.0968,-2.1061,-2.106,-2.0995,-2.1165,-2.1082,-2.1096,-2.1162,-2.1187,-2.1207,-2.1206,-2.0897,0,0,0,0,0,-2.0985,-2.103,-2.1009,-2.1099,-2.1106,-2.1074,-2.1097,-2.1065,-2.1074,-2.1079,-2.1072,-2.1086,-2.1128,-2.1157,-2.1194,-2.131,-2.131,-2.1366,-2.1386,-2.1403,-2.1417,-2.148,-2.1506,-2.1233,-2.1233,-2.1233,0,0,-2.1064,-2.1058,-2.1089,-2.1123,-2.1127,-2.1177,-2.1079,-2.1135,-2.1173,-2.1088,-2.1167,-2.1163,-2.1175,-2.1276,-2.132,-2.1278,-2.1492,-2.1417,-2.1431,-2.1436,-2.1495,-2.1521,-2.1544,-2.1241,-2.1239,-2.1238,0,0,-2.1233,-2.1232,-2.1307,-2.1313,-2.132,-2.1298,-2.1316,-2.1311,-2.1304,-2.1381,-2.132,-2.1365,-2.1437,-2.1449,-2.1465,-2.1639,-2.1592,-2.1652,-2.1758,-2.1821,-2.1842,-2.1861,-2.1926,-2.1949,-2.1666,-2.1666,-2.1666,0,-2.1331,-2.1401,-2.1352,-2.1413,-2.1431,-2.1354,-2.1432,-2.1441,-2.1461,-2.1477,-2.1428,-2.1519,-2.1521,-2.1625,-2.1667,-2.1681,-2.1703,-2.1653,-2.1842,-2.1861,-2.1878,-2.1939,-2.1963,-2.1674,-2.1673,-2.1672,-2.1671,0,-2.1522,-2.1572,-2.1633,-2.1652,-2.1676,-2.1745,-2.1709,-2.174,-2.1706,-2.169,-2.1772,-2.1772,-2.1809,-2.183,-2.1798,-2.193,-2.1904,-2.185,-2.1766,-2.1912,-2.1969,-2.1992,-2.1684,-2.1682,-2.1679,-2.1678,0,0,-2.1769,-2.1759,-2.1782,-2.1791,-2.1793,-2.1832,-2.1899,-2.1932,-2.1961,-2.1978,-2.2034,-2.2098,-2.2047,-2.2065,-2.2034,-2.2088,-2.2229,-2.2027,-2.2027,-2.2067,-2.2378,-2.2421,-2.2449,-2.2196,-2.2201,-2.2204,-2.2378,0,-2.1936,-2.2047,-2.2005,-2.2121,-2.2168,-2.2095,-2.2154,-2.2163,-2.215,-2.219,-2.2176,-2.2223,-2.2151,-2.2162,-2.2212,-2.2201,-2.2291,-2.2188,-2.2252,-2.2255,-2.2254,-2.2478,-2.2523,-2.2687,-2.2399,-2.2403,-2.2406,0,-2.2146,-2.2169,-2.2289,-2.2284,-2.2302,-2.2355,-2.2383,-2.2421,-2.2431,-2.2418,-2.2438,-2.2395,-2.2463,-2.2377,-2.2471,-2.2402,-2.2425,-2.2424,-2.2429,-2.2436,-2.2341,-2.2494,-2.2738,-2.2764,-2.244,-2.2437,-2.2435,0,-2.2317,-2.2378,-2.2458,-2.2467,-2.2462,-2.2502,-2.2502,-2.2507,-2.2531,-2.2556,-2.2571,-2.2605,-2.2625,-2.2653,-2.2622,-2.2561,-2.2722,-2.2633,-2.2716,-2.2717,-2.2755,-2.2754,-2.3011,-2.2766,-2.2766,-2.2765,-2.2765,0,-2.251,-2.2587,-2.2535,-2.2585,-2.2669,-2.2621,-2.2707,-2.27,-2.2705,-2.2754,-2.2693,-2.2741,-2.2694,-2.2739,-2.2714,-2.2798,-2.2807,-2.28,-2.2794,-2.2808,-2.2809,-2.2825,-2.2814,-2.2772,-2.277,-2.2769,-2.2768,0,-2.2717,-2.2684,-2.2767,-2.2755,-2.2754,-2.2818,-2.2809,-2.2856,-2.2837,-2.2901,-2.2913,-2.2886,-2.2935,-2.2905,-2.2955,-2.2939,-2.3049,-2.3025,-2.3045,-2.304,-2.3126,-2.312,-2.3404,-2.344,-2.317,-2.3173,-2.3175,0,-2.2843,-2.29,-2.2894,-2.2921,-2.2925,-2.297,-2.2993,-2.2948,-2.2976,-2.2991,-2.3037,-2.308,-2.3113,-2.3195,-2.3182,-2.3221,-2.3199,-2.3296,-2.3205,-2.3218,-2.3205,-2.3203,-2.321,-2.3316,-2.3319,-2.3322,-2.3324,0,-2.3072,-2.3053,-2.3087,-2.3117,-2.3146,-2.3168,-2.3185,-2.3212,-2.3167,-2.3201,-2.3249,-2.3274,-2.3325,-2.337,-2.3403,-2.3406,-2.336,-2.3352,-2.3374,-2.339,-2.3401,-2.3399,-2.3099,-2.3346,-2.3344,-2.3342,-2.3341,-2.334,-2.3244,-2.3292,-2.3296,-2.3337,-2.3344,-2.3362,-2.3406,-2.3393,-2.3431,-2.3468,-2.3439,-2.3498,-2.3508,-2.3546,-2.3556,-2.3602,-2.3564,-2.3595,-2.3603,-2.3612,-2.3626,-2.3391,-2.3608,-2.3607,-2.3607,-2.3606,-2.3606,0,-2.3473,-2.3471,-2.3509,-2.3534,-2.3567,-2.3516,-2.3532,-2.3565,-2.3616,-2.3628,-2.366,-2.3717,-2.3761,-2.375,-2.379,-2.383,-2.381,-2.3842,-2.3841,-2.3843,-2.3656,-2.3635,-2.3858,-2.3858,-2.3858,-2.3858,-2.3858,-2.3858,-2.3595,-2.3675,-2.3657,-2.3741,-2.3738,-2.3794,-2.3808,-2.3825,-2.3834,-2.3899,-2.3934,-2.3926,-2.393,-2.397,-2.4009,-2.4004,-2.4024,-2.4065,-2.4054,-2.3881,-2.3856,-2.3832,-2.3812,-2.4069,-2.4069,-2.4236,-2.4238,-2.4239]},{"header":{"parameterUnit":"m.s-1","parameterCategory":1,"la1":30.2991,"la2":30.254,"lo1":-89.0895,"lo2":-89.0444,"dy":0.0017,"dx":0.0017,"nx":28,"ny":28,"refTime":"2024-09-01T21:00:00:Z","depth":0,"parameterNumber":3,"parameterNumberName":"V-component_of_WINDS"},"data":[0,0,0,0,0,0,0,0,0,0,0,0,0,0,0,0,0,0,0,0,0,0,0,0,0,0,0,0,0,0,0,0,0,0,0,0,0,0,0,0,0,0,0,0,0,0,0,0,0,0,0,0,0,0,0,0,0,0,-2.1894,-2.1894,0,-2.1861,-2.1861,-2.186,-2.1826,-2.1826,-2.1825,-2.1825,-2.179,-2.1789,-2.1789,0,0,0,0,0,0,0,0,0,0,0,0,0,-2.1925,-2.1925,-2.1894,-2.1894,-2.1893,-2.1861,-2.1861,-2.186,-2.1826,-2.1826,-2.1825,-2.1825,-2.179,-2.1789,-2.1789,0,0,0,0,0,0,0,0,0,0,0,0,0,-2.1904,-2.1925,-2.1894,-2.1872,-2.187,-2.1861,-2.1861,-2.186,-2.1826,-2.1826,-2.1825,-2.1824,-2.179,-2.179,-2.1789,-2.1798,0,0,-2.1787,-2.1786,0,0,0,0,0,0,0,0,-2.1905,-2.1903,-2.1876,-2.1874,-2.1871,-2.1847,-2.1859,-2.1839,-2.1827,-2.1843,-2.1825,-2.1824,-2.1809,-2.1807,-2.1802,-2.1797,-2.1795,-2.1786,-2.1786,-2.1786,-2.1786,0,0,0,0,0,0,0,-2.1907,-2.1904,-2.1881,-2.1876,-2.1873,-2.1864,-2.186,-2.1855,-2.183,-2.1841,-2.1839,-2.1836,-2.1808,-2.1803,-2.1801,-2.1795,-2.1787,-2.1786,-2.1785,-2.1785,-2.1794,-2.1795,0,0,0,0,0,0,-2.1912,-2.1906,-2.1882,-2.188,-2.1887,-2.1864,-2.1859,-2.1856,-2.183,-2.1826,-2.1836,-2.1834,-2.1805,-2.1802,-2.18,-2.1809,-2.1786,-2.1785,-2.1785,-2.1794,-2.1795,-2.1795,0,0,0,0,0,0,-2.1913,-2.191,-2.1883,-2.1892,-2.1888,-2.1864,-2.186,-2.1855,-2.185,-2.1827,-2.1822,-2.1836,-2.1804,-2.1801,-2.1799,-2.1807,-2.1785,-2.1784,-2.1793,-2.1794,-2.1795,-2.1827,0,0,0,0,0,0,-2.1914,-2.1911,-2.1914,-2.1892,-2.1888,-2.1883,-2.186,-2.1855,-2.1849,-2.1846,-2.1825,-2.1821,-2.1803,-2.18,-2.1798,-2.1806,-2.1783,-2.1792,-2.1793,-2.1795,-2.1825,-2.1829,-2.1832,0,0,0,0,0,-2.1915,-2.1925,-2.1915,-2.1912,-2.1892,-2.1884,-2.1881,-2.1861,-2.185,-2.1854,-2.1838,-2.1821,-2.1807,-2.18,-2.1798,-2.1805,-2.1791,-2.1793,-2.1794,-2.1823,-2.1828,-2.1832,0,0,0,0,0,0,-2.1948,-2.1921,-2.191,-2.1913,-2.1901,-2.1878,-2.1882,-2.1867,-2.1858,-2.1855,-2.183,-2.1826,-2.1826,-2.1816,-2.1809,-2.1813,-2.1797,-2.1798,-2.182,-2.1824,-2.1828,-2.183,-2.1783,0,0,0,0,0,-2.1955,-2.1952,-2.1929,-2.1933,-2.1928,-2.1906,-2.1902,-2.1888,-2.1874,-2.1869,-2.1853,-2.184,-2.1832,-2.1828,-2.1819,-2.1824,-2.1818,-2.1827,-2.1831,-2.1834,-2.1835,-2.1836,-2.1839,-2.18,-2.18,-2.18,0,0,-2.1971,-2.1956,-2.1955,-2.194,-2.1929,-2.1924,-2.1902,-2.1899,-2.1895,-2.1868,-2.1865,-2.1853,-2.1837,-2.1838,-2.1837,-2.1829,-2.1845,-2.1836,-2.1839,-2.1838,-2.1838,-2.1841,-2.1844,-2.1801,-2.1801,-2.1801,0,0,-2.1997,-2.1986,-2.1988,-2.1978,-2.1962,-2.1947,-2.1948,-2.1927,-2.1918,-2.1915,-2.1894,-2.1889,-2.1877,-2.1866,-2.1859,-2.188,-2.1864,-2.1878,-2.1897,-2.1898,-2.1901,-2.1903,-2.191,-2.1913,-2.188,-2.188,-2.188,0,-2.2018,-2.2012,-2.1991,-2.1989,-2.1982,-2.1958,-2.196,-2.1951,-2.1932,-2.1928,-2.1919,-2.1902,-2.189,-2.1887,-2.1893,-2.1888,-2.1887,-2.188,-2.1902,-2.1905,-2.1907,-2.1913,-2.1915,-2.1881,-2.1881,-2.1881,-2.1881,0,-2.2038,-2.2034,-2.2038,-2.2021,-2.2015,-2.2015,-2.1994,-2.199,-2.1976,-2.1963,-2.1959,-2.1943,-2.1931,-2.1929,-2.1916,-2.1925,-2.192,-2.1907,-2.189,-2.1912,-2.1918,-2.192,-2.1884,-2.1883,-2.1883,-2.1882,0,0,-2.2083,-2.2055,-2.2057,-2.2049,-2.2029,-2.2025,-2.2024,-2.2012,-2.2009,-2.1997,-2.1995,-2.1985,-2.1972,-2.1964,-2.1949,-2.195,-2.1967,-2.1937,-2.1936,-2.1942,-2.1975,-2.1984,-2.1987,-2.1957,-2.1957,-2.1958,-2.1976,0,-2.2105,-2.2101,-2.2083,-2.2084,-2.208,-2.2056,-2.2055,-2.2042,-2.203,-2.2023,-2.2009,-2.2002,-2.1986,-2.1981,-2.1981,-2.1965,-2.1973,-2.1964,-2.1953,-2.1953,-2.1957,-2.199,-2.2,-2.2018,-2.1978,-2.1978,-2.1979,0,-2.213,-2.212,-2.2121,-2.2101,-2.2098,-2.2098,-2.2085,-2.208,-2.2065,-2.2055,-2.2046,-2.203,-2.2026,-2.2011,-2.2005,-2.1999,-2.1994,-2.1985,-2.1985,-2.1983,-2.1967,-2.1987,-2.2023,-2.2026,-2.1982,-2.1982,-2.1981,0,-2.2161,-2.2148,-2.2147,-2.2141,-2.2118,-2.2118,-2.2108,-2.2092,-2.2086,-2.2075,-2.2071,-2.206,-2.2053,-2.2045,-2.2025,-2.2016,-2.2021,-2.2005,-2.2012,-2.2012,-2.2013,-2.2013,-2.2047,-2.2011,-2.2011,-2.2011,-2.2011,0,-2.2187,-2.2188,-2.2161,-2.216,-2.2161,-2.2139,-2.214,-2.2128,-2.2115,-2.211,-2.209,-2.2086,-2.2061,-2.2054,-2.2039,-2.2036,-2.2033,-2.2025,-2.202,-2.2026,-2.2027,-2.2021,-2.2019,-2.2012,-2.2012,-2.2012,-2.2012,0,-2.2221,-2.2203,-2.22,-2.2179,-2.2174,-2.2175,-2.2156,-2.2154,-2.214,-2.2135,-2.2133,-2.211,-2.2101,-2.2081,-2.2067,-2.2057,-2.2057,-2.205,-2.2062,-2.2059,-2.2067,-2.2066,-2.2098,-2.2101,-2.2064,-2.2065,-2.2065,0,-2.2238,-2.2239,-2.2218,-2.2214,-2.2205,-2.2199,-2.2193,-2.2172,-2.2166,-2.2149,-2.2149,-2.2138,-2.2129,-2.2115,-2.2097,-2.2086,-2.2078,-2.209,-2.2076,-2.2081,-2.2077,-2.2076,-2.2076,-2.2093,-2.2093,-2.2093,-2.2094,0,-2.227,-2.2261,-2.2254,-2.2243,-2.2236,-2.2226,-2.2215,-2.2213,-2.2189,-2.2184,-2.2175,-2.2167,-2.2153,-2.2142,-2.2128,-2.2117,-2.2101,-2.2099,-2.2099,-2.2104,-2.2111,-2.2106,-2.2069,-2.2098,-2.2097,-2.2097,-2.2097,-2.2097,-2.2296,-2.2295,-2.228,-2.2272,-2.2261,-2.2252,-2.2248,-2.2234,-2.2227,-2.2213,-2.2201,-2.2193,-2.2177,-2.2157,-2.2147,-2.214,-2.2132,-2.2133,-2.2133,-2.2134,-2.2136,-2.2113,-2.2137,-2.2137,-2.2137,-2.2137,-2.2137,0,-2.2325,-2.2315,-2.2308,-2.2293,-2.2287,-2.2273,-2.226,-2.2256,-2.2249,-2.2236,-2.2227,-2.2216,-2.2206,-2.2187,-2.2175,-2.2173,-2.2165,-2.217,-2.2169,-2.2167,-2.2144,-2.2144,-2.2176,-2.2176,-2.2176,-2.2176,-2.2176,-2.2176,-2.234,-2.2338,-2.2327,-2.2319,-2.2308,-2.23,-2.2294,-2.2284,-2.2274,-2.2263,-2.2254,-2.2243,-2.2227,-2.2214,-2.2203,-2.2198,-2.2194,-2.2201,-2.2193,-2.2172,-2.2169,-2.2165,-2.2165,-2.2201,-2.2201,-2.2216,-2.2217,-2.2217]}]]